Regional Weather Roundup
Issued by NWS

Home | Current Version | Previous Version | Graphics & Text | Print | Product List | Glossary On
Versions: 1 2 3 4 5 6 7 8 9 10 11 12 13 14 15 16 17 18 19 20 21 22 23 24 25 26 27 28 29 30 31 32 33 34 35 36 37 38 39 40 41 42 43 44 45 46 47 48 49 50
176
ASUS45 KTFX 271810
RWRMT
MONTANA REGIONAL WEATHER ROUNDUP
NATIONAL WEATHER SERVICE GREAT FALLS MT
1200 PM MDT FRI MAY 27 2016

NOTE: "FAIR" INDICATES FEW OR NO CLOUDS BELOW 12000 FEET WITH NO
SIGNIFICANT WEATHER AND/OR OBSTRUCTIONS TO VISIBILITY.

MTZ001>007-043-271900-
WEST OF THE DIVIDE

CITY           SKY/WX    TMP DP  RH WIND       PRES   REMARKS
KALISPELL      CLOUDY    53  43  68 S12       29.94R
MISSOULA       CLOUDY    57  40  52 NW13      29.96S
BUTTE          CLOUDY    53  35  50 E5        29.92F
MULLAN PASS    CLOUDY    34  31  88 VRB5      30.00R
ANACONDA         N/A     50  43  76 N7        29.92R
DEER LODGE       N/A     54  43  66 NW13      29.93F
EUREKA           N/A     57  37  47 S10         N/A
HAMILTON         N/A     55  39  54 N13       29.93S
LIBBY            N/A     55  37  50 SW6       29.96S
$$

MTZ008-052>055-271900-
SOUTHWEST MONTANA

CITY           SKY/WX    TMP DP  RH WIND       PRES   REMARKS
BOZEMAN        CLOUDY    54  47  77 VRB5      29.93F
DILLON         SUNNY     58  42  55 E5        29.89F
W YELLOWSTONE  CLOUDY    52  37  58 S10       29.97F
ENNIS          FOG       46  43  87 W10G17    30.01R VSB 1
$$

MTZ009-010-012-014-046-048-049-054-271900-
EAST SLOPES AND CENTRAL MONTANA

CITY           SKY/WX    TMP DP  RH WIND       PRES   REMARKS
CUT BANK       PTSUNNY   61  39  44 W21G29    29.85S
GREAT FALLS    CLOUDY    61  41  47 SW12      29.87S
MALMSTROM AFB  PTSUNNY   61  43  51 SW15      29.87S
HELENA         MOSUNNY   59  42  53 SE10      29.88F
CHOTEAU          N/A     63  39  42 W13       29.86S
$$

MTZ011-013-016-021-045-047-050-051-271900-
NORTH CENTRAL MONTANA

CITY           SKY/WX    TMP DP  RH WIND       PRES   REMARKS
HAVRE          PTSUNNY   65  49  56 N6        29.84S
LEWISTOWN      SUNNY     65  41  41 NW6       29.87S
N BAR RANCH    CLOUDY    61  46  59 E10       29.89S
CHINOOK          N/A     64  52  63 E9        29.84F
$$

MTZ017>020-022>027-061-062-271900-
NORTHEAST MONTANA

CITY           SKY/WX    TMP DP  RH WIND       PRES   REMARKS
GLASGOW        MOSUNNY   64  49  57 E13       29.87S
JORDAN           N/A     61  49  64 E7        29.87F
SIDNEY         MOSUNNY   65  48  54 VRB3      29.86S
WOLF POINT     SUNNY     68  49  50 SE7       29.87F
POPLAR           N/A     63  48  59 CALM      29.87S
$$

MTZ028>42-056>058-271900-
SOUTHCENTRAL AND SOUTHEAST MONTANA

CITY           SKY/WX    TMP DP  RH WIND       PRES   REMARKS
BAKER          CLOUDY    62  47  57 NW7       29.86S
BILLINGS       MOSUNNY   65  44  46 SW6       29.87F
LIVINGSTON     SUNNY     60  43  53 NW12      29.88F
MILES CITY     CLOUDY    59  51  75 S5        29.87R
FORSYTH          N/A     57  52  82 CALM      29.87S
$$

REGIONAL REPORTS...DAKOTAS

CITY           SKY/WX    TMP DP  RH WIND       PRES   REMARKS
WILLISTON      CLOUDY    66  50  56 NE8       29.85S
MINOT          CLOUDY    67  54  63 NE10      29.82S
DICKINSON      CLOUDY    63  45  51 NE9       29.83S
BEACH            N/A     64  46  52 N10G17    29.88S
CROSBY         PTSUNNY   63  57  82 N9        29.88S
WATFORD CITY   PTSUNNY   63  50  63 N6        29.86R
BISMARCK       MOSUNNY   69  50  50 N9        29.83S
GRAND FORKS    CLOUDY    69  55  60 NW6       29.79F
FARGO          PTSUNNY   75  58  55 N10       29.75F
BUFFALO SD       N/A     68  43  40 MISG      29.78F
RAPID CITY     CLOUDY    64  45  49 N17       29.86S
$$

REGIONAL REPORTS...WYOMING/IDAHO/WASHINGTON

CITY           SKY/WX    TMP DP  RH WIND       PRES   REMARKS
GILLETTE       PTSUNNY   63  43  48 N10       29.88F
SHERIDAN       MOSUNNY   65  45  48 W7        29.88F
BUFFALO WY     MOSUNNY   61  41  47 N10       29.91S
CODY           MOSUNNY   64  39  39 NW7       29.88F
YELLOWSTONE LA   N/A     48  37  65 VRB5      30.03F
IDAHO FALLS    MOSUNNY   61  42  49 SW14G22   29.94F
SALMON         CLOUDY    52  43  71 S6        29.91R
BOISE          SUNNY     59  34  39 NW14      30.01S
SPOKANE        PTSUNNY   53  36  52 SW14      30.00S
$$

REGIONAL REPORTS...ALBERTA

CITY           SKY/WX    TMP DP  RH WIND       PRES   REMARKS
EDMONTON       CLOUDY    57  50  77 N2        29.77F
CALGARY        CLOUDY    50  45  81 N6        29.79F
LETHBRIDGE     LGT RAIN  64  39  39 SW15G25   29.80F
MEDICINE HAT   CLOUDY    61  55  82 NE8       29.81F
WATERTON GATE    N/A     48  39  71 W13G20      N/A
MILK RIVER       N/A     63  43  48 S7          N/A
ONEFOUR          N/A     63  48  59 SE10        N/A
$$

REGIONAL REPORTS...SASKATCHEWAN

CITY           SKY/WX    TMP DP  RH WIND       PRES   REMARKS
SWIFT CURRENT  MOSUNNY   66  48  52 S13G20    29.88S
REGINA         PTSUNNY   70  48  46 E13G21    29.87S
SASKATOON      PTSUNNY   72  46  40 E13       29.88S
CYPRESS HILLS    N/A     57  45  62 S13G20      N/A
VAL MARIE        N/A     64  48  55 E8          N/A
ROCKGLEN         N/A     61  48  63 N6          N/A
ASSINIBOIA       N/A     64  52  63 S14G23      N/A
$$




USA.gov is the U.S. government's official web portal to all federal, state and local government web resources and services.